User: anonymous   Login
Location: Austin
(30.3000°N, 97.7500°W)
Time: 05:01:41
(UTC-06:00)
Language:

Cosmos 1553 Rocket - Orbit

View from above orbital plane
View from above orbital plane
View from above satellite
View from above satellite

Ground track
Ground track

The orbit data is extracted from the following two-line orbital elements,

1 14974U 84046B   23331.73012524  .00000080  00000-0  65941-4 0  9990
2 14974  82.9368 190.5622 0043777 251.6333 175.6973 13.77019346985987
Epoch (UTC): 27 November 2023 17:31:22
Eccentricity: 0.0043777
inclination: 82.9368°
perigee height: 942 km
apogee height: 1006 km
right ascension of ascending node: 190.5622°
argument of perigee: 251.6333°
revolutions per day: 13.77019346
mean anomaly at epoch: 175.6973°
orbit number at epoch: 98598

The dashed part of the orbit path shows where the satellite is in the earth's shadow,  

DLR